Regional Weather Roundup
Issued by NWS Kansas City/Pleasant Hill, MO

Home | Current Version | Previous Version | Text Only | Print | Product List | Glossary On
Versions: 1 2 3 4 5 6 7 8 9 10 11 12 13 14 15 16 17 18 19 20 21 22 23 24 25 26 27 28 29 30 31 32 33 34 35 36 37 38 39 40 41 42 43 44 45 46 47 48 49 50
000
ASUS43 KEAX 172104
RWREAX

WEATHER ROUNDUP FOR EASTERN KANSAS AND NORTHWEST MISSOURI
NATIONAL WEATHER SERVICE KANSAS CITY/PLEASANT HILL MO
400 PM CDT FRI APR 17 2015

KSZ040-057-103>105-MOZ028-029-037-043-172200-
...KANSAS CITY METROPOLITAN AREA...

CITY           SKY/WX    TMP DP  RH WIND       PRES   REMARKS
K.C. INTL      CLOUDY    75  55  49 SE10      29.96F
K.C. DOWNTOWN  CLOUDY    78  56  46 SE8       29.94F
LEES SUMMIT    PTSUNNY   76  56  49 SE7       29.96F
OLATHE - IXD   CLOUDY    74  58  57 SE9       29.97F
OLATHE - OJC   PTSUNNY   74  58  57 SE9       29.96F
LAWRENCE       CLOUDY    72  60  66 S6        29.97F

$$

MOZ001>008-011>017-020>025-030>033-038>040-044>046-053-054-172200-
...NORTHERN AND CENTRAL MISSOURI...

CITY           SKY/WX    TMP DP  RH WIND       PRES   REMARKS
ST. JOSEPH     CLOUDY    76  55  48 E6        29.97F
MOSBY          MOCLDY    77  54  44 E7        29.96F
WHITEMAN AFB   MOSUNNY   78  58  50 SE6       29.95F
CLINTON        PTSUNNY   79  57  47 SE6       29.96F
SEDALIA        MOSUNNY   80  56  43 SE10G17   29.97F
WARSAW         NOT AVBL
MARSHALL       PTSUNNY   81  57  44 SE7       29.97F
CHILLICOTHE      N/A     79  56  45 CALM      29.98F
MOBERLY        MOSUNNY   79  52  38 SE7       30.00F
KIRKSVILLE     PTSUNNY   78  55  44 S7        30.01F

$$

MOZ041-047>049-056>058-063>065-088>090-097-172200-
...EASTERN AND SOUTHERN MISSOURI...

CITY           SKY/WX    TMP DP  RH WIND       PRES   REMARKS
ST. LOUIS INTL MOSUNNY   79  56  45 VRB5      30.01F
SPIRIT OF STL  MOSUNNY   78  54  43 CALM      29.99F
COLUMBIA       PTSUNNY   76  54  46 E3        29.99F
JEFFERSON CITY MOSUNNY   80  52  37 CALM      29.97F
MEXICO         PTSUNNY   79  59  50 E6        30.02F
HANNIBAL       MOSUNNY   81  45  28 S6        30.01F
ROLLA          PTSUNNY   78  53  41 E5        29.97F
LEBANON        MOSUNNY   81  50  34 E5        29.98F
OSAGE BEACH    PTSUNNY   79  54  41 NE7       29.97F
SPRINGFIELD    MOSUNNY   75  59  57 S9        29.97F
BRANSON        MOSUNNY   73  59  60 SE5       30.00F
NEVADA         MOSUNNY   77  61  57 SE13      29.97F
JOPLIN         MOSUNNY   74  62  66 SE10      29.95F
WEST PLAINS    MOSUNNY   75  56  51 E8        30.01F

$$

IAZ060-094-KSZ022-034>040-054-083-096-NEZ052-066-093-172200-
...KANSAS...SOUTHEAST NEBRASKA AND IOWA...

CITY           SKY/WX    TMP DP  RH WIND       PRES   REMARKS
TOPEKA         CLOUDY    72  59  63 SE6       29.97F
EMPORIA        MOSUNNY   72  59  63 SE12      29.95F
CHANUTE        MOSUNNY   75  60  59 SE14      29.94F
WICHITA        PTSUNNY   73  56  54 SW3       29.94F
OMAHA          CLOUDY    75  51  43 E7        30.00F
LINCOLN        CLOUDY    73  54  51 E10       30.00F
FALLS CITY     CLOUDY    74  54  49 E9        29.96F
LAMONI           N/A     78  54  43 SE5       29.99F
DES MOINES     PTSUNNY   79  49  34 VRB5      30.01F

$$



USA.gov is the U.S. government's official web portal to all federal, state and local government web resources and services.